• en France
  • Liste des pays
  • À 7 jours
  • Température de l'eau
  • Carte satellitaire
  • Carte météo
  • Widgets météo
  • user-avatar
    Se connecter

    Météo par heure à Bogolyubovka

    Ce jour, 22 Mai, Mardi

    Heure Température Précipitation Vent Pression Humidité
    00:00 +12°C° 0 mm 4 m/s 757 mmHg 61%
    01:00 +12°C° 0 mm 4 m/s 757 mmHg 61%
    02:00 +12°C° 0 mm 4 m/s 757 mmHg 61%
    03:00 +12°C° 0 mm 4 m/s 757 mmHg 62%
    04:00 +12°C° 0 mm 4 m/s 758 mmHg 64%
    05:00 +12°C° 0 mm 4 m/s 758 mmHg 67%
    06:00 +11°C° 0 mm 4 m/s 758 mmHg 69%
    07:00 +12°C° 0,1 mm 4 m/s 758 mmHg 69%
    08:00 +13°C° 0,1 mm 4 m/s 758 mmHg 68%
    09:00 +14°C° 0 mm 5 m/s 759 mmHg 66%
    10:00 +16°C° 0 mm 5 m/s 759 mmHg 64%
    11:00 +17°C° 0 mm 5 m/s 759 mmHg 62%
    12:00 +20°C° 0 mm 5 m/s 759 mmHg 59%
    13:00 +21°C° 0 mm 5 m/s 758 mmHg 59%
    14:00 +21°C° 0 mm 5 m/s 758 mmHg 59%
    15:00 +23°C° 0 mm 5 m/s 758 mmHg 57%
    16:00 +23°C° 0 mm 4 m/s 758 mmHg 61%
    17:00 +22°C° 0 mm 4 m/s 758 mmHg 65%
    18:00 +22°C° 0 mm 3 m/s 757 mmHg 68%
    19:00 +21°C° 0 mm 3 m/s 757 mmHg 70%
    20:00 +20°C° 0 mm 3 m/s 757 mmHg 72%
    21:00 +19°C° 0 mm 3 m/s 757 mmHg 75%
    22:00 +18°C° 0 mm 3 m/s 757 mmHg 74%
    23:00 +18°C° 0 mm 3 m/s 757 mmHg 74%

    Demain, 23 Mai, Mercredi

    Heure Température Précipitation Vent Pression Humidité
    00:00 +18°C° 0 mm 3 m/s 757 mmHg 73%
    01:00 +17°C° 0,3 mm 3 m/s 757 mmHg 76%
    02:00 +16°C° 0,3 mm 3 m/s 757 mmHg 79%
    03:00 +16°C° 0,3 mm 2 m/s 756 mmHg 81%
    04:00 +16°C° 0,5 mm 3 m/s 756 mmHg 84%
    05:00 +16°C° 0,5 mm 3 m/s 757 mmHg 87%
    06:00 +16°C° 0,5 mm 3 m/s 757 mmHg 90%
    07:00 +17°C° 0,2 mm 3 m/s 756 mmHg 87%
    08:00 +18°C° 0,2 mm 3 m/s 756 mmHg 83%
    09:00 +19°C° 0,2 mm 4 m/s 756 mmHg 80%
    10:00 +20°C° 0 mm 3 m/s 756 mmHg 76%
    11:00 +21°C° 0 mm 3 m/s 756 mmHg 73%
    12:00 +21°C° 0 mm 3 m/s 755 mmHg 70%
    13:00 +22°C° 0 mm 3 m/s 755 mmHg 69%
    14:00 +22°C° 0 mm 3 m/s 755 mmHg 68%
    15:00 +23°C° 0 mm 2 m/s 755 mmHg 67%
    16:00 +23°C° 0 mm 2 m/s 755 mmHg 70%
    17:00 +23°C° 0 mm 2 m/s 754 mmHg 73%
    18:00 +23°C° 0 mm 1 m/s 754 mmHg 76%
    19:00 +22°C° 0,2 mm 1 m/s 754 mmHg 81%
    20:00 +20°C° 0,2 mm 1 m/s 754 mmHg 85%
    21:00 +18°C° 0,2 mm 2 m/s 754 mmHg 90%
    22:00 +19°C° 0,2 mm 1 m/s 754 mmHg 90%
    23:00 +18°C° 0,2 mm 1 m/s 754 mmHg 90%

    Après-demain, 24 Mai, Jeudi

    Heure Température Précipitation Vent Pression Humidité
    00:00 +18°C° 0,2 mm 1 m/s 753 mmHg 90%
    01:00 +18°C° 0,3 mm 1 m/s 753 mmHg 91%
    02:00 +16°C° 0,3 mm 1 m/s 753 mmHg 91%
    03:00 +16°C° 0,3 mm 1 m/s 753 mmHg 92%
    04:00 +16°C° 0,4 mm 1 m/s 753 mmHg 92%
    05:00 +16°C° 0,4 mm 1 m/s 753 mmHg 92%
    06:00 +16°C° 0,4 mm 1 m/s 752 mmHg 93%
    07:00 +18°C° 0,3 mm 1 m/s 752 mmHg 89%
    08:00 +19°C° 0,3 mm 1 m/s 752 mmHg 86%
    09:00 +20°C° 0,3 mm 1 m/s 752 mmHg 83%
    10:00 +21°C° 0,2 mm 1 m/s 752 mmHg 79%
    11:00 +21°C° 0,2 mm 2 m/s 752 mmHg 74%
    12:00 +23°C° 0,2 mm 2 m/s 752 mmHg 70%
    13:00 +24°C° 0,2 mm 2 m/s 751 mmHg 68%
    14:00 +24°C° 0,2 mm 2 m/s 751 mmHg 67%
    15:00 +24°C° 0,2 mm 3 m/s 751 mmHg 66%
    16:00 +24°C° 0,5 mm 2 m/s 751 mmHg 69%
    17:00 +23°C° 0,5 mm 2 m/s 750 mmHg 72%
    18:00 +23°C° 0,5 mm 2 m/s 750 mmHg 75%
    19:00 +21°C° 0 mm 2 m/s 750 mmHg 80%
    20:00 +19°C° 0 mm 2 m/s 750 mmHg 84%
    21:00 +18°C° 0 mm 2 m/s 750 mmHg 89%
    22:00 +17°C° 0 mm 3 m/s 751 mmHg 90%
    23:00 +17°C° 0 mm 3 m/s 751 mmHg 90%

    25 Mai, Vendredi

    Heure Température Précipitation Vent Pression Humidité
    00:00 +16°C° 0 mm 3 m/s 751 mmHg 91%
    01:00 +15°C° 0 mm 4 m/s 751 mmHg 91%
    02:00 +14°C° 0 mm 4 m/s 751 mmHg 90%
    03:00 +14°C° 0 mm 5 m/s 751 mmHg 89%
    04:00 +13°C° 0 mm 5 m/s 752 mmHg 86%
    05:00 +13°C° 0 mm 6 m/s 752 mmHg 83%
    06:00 +13°C° 0 mm 6 m/s 752 mmHg 80%
    07:00 +12°C° 0 mm 7 m/s 753 mmHg 72%
    08:00 +14°C° 0 mm 7 m/s 754 mmHg 64%
    09:00 +15°C° 0 mm 7 m/s 754 mmHg 56%
    10:00 +15°C° 0 mm 7 m/s 754 mmHg 53%
    11:00 +16°C° 0 mm 7 m/s 755 mmHg 49%
    12:00 +16°C° 0 mm 7 m/s 755 mmHg 46%
    13:00 +16°C° 0 mm 7 m/s 755 mmHg 46%
    14:00 +16°C° 0 mm 7 m/s 756 mmHg 46%
    15:00 +16°C° 0 mm 7 m/s 756 mmHg 45%
    16:00 +16°C° 0 mm 6 m/s 756 mmHg 48%
    17:00 +15°C° 0 mm 6 m/s 756 mmHg 50%
    18:00 +14°C° 0 mm 5 m/s 757 mmHg 53%
    19:00 +13°C° 0 mm 4 m/s 757 mmHg 55%
    20:00 +11°C° 0 mm 4 m/s 758 mmHg 57%
    21:00 +10°C° 0 mm 3 m/s 758 mmHg 60%
    22:00 +9°C° 0 mm 3 m/s 758 mmHg 61%
    23:00 +8°C° 0 mm 3 m/s 759 mmHg 63%

    26 Mai, Samedi

    Heure Température Précipitation Vent Pression Humidité
    00:00 +8°C° 0 mm 3 m/s 759 mmHg 65%
    01:00 +7°C° 0 mm 3 m/s 760 mmHg 67%
    02:00 +7°C° 0 mm 2 m/s 760 mmHg 69%
    03:00 +6°C° 0 mm 2 m/s 760 mmHg 71%
    04:00 +7°C° 0 mm 2 m/s 761 mmHg 70%
    05:00 +7°C° 0 mm 2 m/s 761 mmHg 69%
    06:00 +8°C° 0 mm 2 m/s 761 mmHg 68%
    07:00 +10°C° 0 mm 2 m/s 762 mmHg 60%
    08:00 +12°C° 0 mm 3 m/s 762 mmHg 53%
    09:00 +14°C° 0 mm 3 m/s 762 mmHg 45%
    10:00 +16°C° 0 mm 3 m/s 762 mmHg 44%
    11:00 +17°C° 0 mm 3 m/s 762 mmHg 42%
    12:00 +18°C° 0 mm 3 m/s 762 mmHg 40%
    13:00 +18°C° 0 mm 3 m/s 762 mmHg 41%
    14:00 +19°C° 0 mm 3 m/s 762 mmHg 41%
    15:00 +19°C° 0 mm 3 m/s 761 mmHg 41%
    16:00 +19°C° 0 mm 2 m/s 761 mmHg 44%
    17:00 +19°C° 0 mm 2 m/s 761 mmHg 48%
    18:00 +20°C° 0 mm 1 m/s 761 mmHg 52%
    19:00 +18°C° 0 mm 1 m/s 761 mmHg 57%
    20:00 +15°C° 0 mm 2 m/s 761 mmHg 63%
    21:00 +13°C° 0 mm 2 m/s 761 mmHg 68%
    22:00 +13°C° 0 mm 2 m/s 761 mmHg 72%
    23:00 +12°C° 0 mm 2 m/s 761 mmHg 75%

    27 Mai, Dimanche

    Heure Température Précipitation Vent Pression Humidité
    00:00 +10°C° 0 mm 3 m/s 761 mmHg 78%
    01:00 +10°C° 0 mm 3 m/s 761 mmHg 81%
    02:00 +10°C° 0 mm 3 m/s 761 mmHg 83%
    03:00 +10°C° 0 mm 3 m/s 761 mmHg 86%
    04:00 +10°C° 0 mm 3 m/s 761 mmHg 84%
    05:00 +11°C° 0 mm 3 m/s 760 mmHg 83%
    06:00 +12°C° 0 mm 3 m/s 760 mmHg 81%
    07:00 +14°C° 0 mm 3 m/s 760 mmHg 76%
    08:00 +17°C° 0 mm 4 m/s 759 mmHg 70%
    09:00 +19°C° 0 mm 4 m/s 759 mmHg 65%
    10:00 +21°C° 0 mm 4 m/s 759 mmHg 60%
    11:00 +22°C° 0 mm 5 m/s 758 mmHg 55%
    12:00 +23°C° 0 mm 6 m/s 758 mmHg 49%
    13:00 +23°C° 0 mm 6 m/s 757 mmHg 50%
    14:00 +23°C° 0 mm 6 m/s 757 mmHg 51%
    15:00 +23°C° 0 mm 6 m/s 756 mmHg 52%
    16:00 +23°C° 0 mm 6 m/s 756 mmHg 56%
    17:00 +22°C° 0 mm 6 m/s 755 mmHg 60%
    18:00 +22°C° 0 mm 5 m/s 755 mmHg 64%
    19:00 +20°C° 0,1 mm 5 m/s 755 mmHg 68%
    20:00 +19°C° 0,1 mm 5 m/s 755 mmHg 73%
    21:00 +17°C° 0,1 mm 4 m/s 755 mmHg 77%
    22:00 +17°C° 0,1 mm 4 m/s 755 mmHg 82%
    23:00 +15°C° 0,1 mm 4 m/s 755 mmHg 86%
    Voir plus